Lawrence, KS

10:03 AM CST on February 20, 2017 (GMT -0600)
Lawrence Municipal

Weather History for KLWC - August, 2013

Change the Weather History Date:

Sunday, August 4, 2013

  Actual Average Record
Temperature  
Mean Temperature 72 °F 79 °F  
Max Temperature 77 °F 90 °F 100 °F (2002)
Min Temperature 67 °F 67 °F 63 °F (2003)
Degree Days  
Heating Degree Days 0 0  
Month to date heating degree days 0 0  
Since 1 June heating degree days 13 9  
Since 1 July heating degree days 0 1  
Cooling Degree Days 7 14  
Month to date cooling degree days 48 56  
Year to date cooling degree days 891 864  
Since 1 June cooling degree days 764 745  
Growing Degree Days 22 (Base 50)    
Moisture  
Dew Point 68 °F    
Average Humidity 79    
Maximum Humidity 90    
Minimum Humidity 68    
Precipitation  
Precipitation 0.90 in 0.09 in 1.27 in (2015)
Month to date precipitation 1.40 0.37  
Year to date precipitation 18.43 23.90  
Sea Level Pressure  
Sea Level Pressure 30.08 in    
Wind  
Wind Speed 5 mph (East)    
Max Wind Speed 10 mph    
Max Gust Speed 14 mph    
Visibility 8 miles    
Events Fog , Rain , Thunderstorm    
T = Trace of Precipitation, MM = Missing Value Source: NWS Daily Summary

Daily Weather History Graph

Daily Weather History Graph

Search for Another Location

Airport or City:

Trip Planner

Search our weather history database for the weather conditions in past years. The results will help you decide how hot, cold, wet, or windy it might be!

Date:

Astronomy

Aug. 04, 2013 Rise Set
Actual Time 6:24 AM CDT 8:28 PM CDT
Civil Twilight 5:55 AM CDT 8:58 PM CDT
Nautical Twilight 5:19 AM CDT 9:34 PM CDT
Astronomical Twilight 4:39 AM CDT 10:12 PM CDT
Moon 4:26 AM CDT (8/4) 6:52 PM CDT (8/4)
Length of Visible Light 15h 03m
Length of Day
14h 04m
Waning Crescent, 4% of the Moon is Illuminated
Aug 4
Waning Crescent
Aug 6
New
Aug 14
First Quarter
Aug 20
Full
Aug 28
Last Quarter

Hourly Weather History & Observations

Time (CDT) Temp. Dew Point Humidity Pressure Visibility Wind Dir Wind Speed Gust Speed Precip Events Conditions
12:52 AM 77.0 °F 71.1 °F 82% 30.10 in 10.0 mi ENE 6.9 mph - N/A   Overcast
1:52 AM 75.0 °F 68.0 °F 79% 30.06 in 10.0 mi East 8.1 mph - N/A   Scattered Clouds
2:52 AM 73.9 °F 64.9 °F 73% 30.09 in 10.0 mi ENE 6.9 mph - N/A   Mostly Cloudy
3:52 AM 73.9 °F 62.1 °F 66% 30.09 in 10.0 mi ENE 9.2 mph - N/A   Overcast
4:52 AM 72.0 °F 62.1 °F 71% 30.08 in 10.0 mi East 4.6 mph - N/A   Partly Cloudy
5:52 AM 73.0 °F 62.1 °F 68% 30.09 in 10.0 mi East 4.6 mph - N/A   Overcast
6:11 AM 73.4 °F 62.6 °F 69% 30.12 in 10.0 mi ESE 4.6 mph - N/A Thunderstorm Overcast
6:35 AM 71.6 °F 62.6 °F 73% 30.13 in 10.0 mi East 5.8 mph - 0.01 in Rain Light Rain
6:52 AM 70.0 °F 64.0 °F 81% 30.10 in 10.0 mi East 5.8 mph - 0.01 in Rain Light Rain
7:52 AM 69.1 °F 63.0 °F 81% 30.11 in 10.0 mi SE 5.8 mph - 0.00 in   Mostly Cloudy
8:29 AM 68.0 °F 64.4 °F 88% 30.13 in 10.0 mi East 5.8 mph - 0.01 in Thunderstorm Overcast
8:52 AM 69.1 °F 63.0 °F 81% 30.12 in 10.0 mi East 4.6 mph - 0.01 in Rain Light Rain
9:01 AM 68.0 °F 64.4 °F 88% 30.14 in 10.0 mi Calm Calm - 0.00 in Rain , Thunderstorm Light Rain
9:16 AM 69.8 °F 64.4 °F 83% 30.14 in 10.0 mi Calm Calm - 0.01 in Rain Light Rain
9:49 AM 69.8 °F 64.4 °F 83% 30.16 in 2.5 mi Calm Calm - 0.06 in Rain Light Rain
9:52 AM 69.1 °F 64.9 °F 87% 30.14 in 1.0 mi Calm Calm - 0.11 in Rain Rain
9:56 AM 68.0 °F 64.4 °F 88% 30.16 in 0.5 mi NNW 3.5 mph - 0.09 in Fog , Rain Heavy Rain
10:10 AM 68.0 °F 64.4 °F 88% 30.16 in 1.0 mi Calm Calm - 0.27 in Rain Rain
10:38 AM 68.0 °F 64.4 °F 88% 30.16 in 2.5 mi East 5.8 mph - 0.51 in Rain Light Rain
10:49 AM 68.0 °F 64.4 °F 88% 30.15 in 3.0 mi East 5.8 mph - 0.55 in Rain Light Rain
10:52 AM 68.0 °F 64.9 °F 90% 30.14 in 3.0 mi East 6.9 mph - 0.55 in Rain Light Rain
11:29 AM 69.8 °F 66.2 °F 88% 30.15 in 7.0 mi East 4.6 mph - 0.03 in Rain Light Rain
11:39 AM 69.8 °F 66.2 °F 88% 30.15 in 9.0 mi East 8.1 mph - 0.03 in Rain Light Rain
11:47 AM 69.8 °F 66.2 °F 88% 30.14 in 8.0 mi East 6.9 mph - 0.03 in Rain Light Rain
11:52 AM 70.0 °F 66.0 °F 87% 30.13 in 6.0 mi East 6.9 mph - 0.04 in Rain Light Rain
12:00 PM 69.8 °F 66.2 °F 88% 30.14 in 6.0 mi East 6.9 mph - 0.01 in Rain Light Rain
12:52 PM 71.1 °F 68.0 °F 90% 30.10 in 10.0 mi ESE 6.9 mph - 0.04 in Rain Light Rain
1:52 PM 72.0 °F 69.1 °F 91% 30.09 in 10.0 mi ESE 8.1 mph - 0.00 in   Overcast
2:52 PM 72.0 °F 69.1 °F 91% 30.06 in 9.0 mi ESE 5.8 mph - 0.03 in Rain Light Rain
3:52 PM 73.0 °F 70.0 °F 90% 30.06 in 10.0 mi East 3.5 mph - 0.00 in   Overcast
4:38 PM 73.4 °F 71.6 °F 94% 30.07 in 10.0 mi East 4.6 mph - N/A   Overcast
4:45 PM 73.4 °F 71.6 °F 94% 30.07 in 10.0 mi ENE 5.8 mph - N/A   Overcast
4:52 PM 75.0 °F 71.1 °F 87% 30.04 in 10.0 mi ENE 4.6 mph - N/A   Overcast
5:28 PM 75.2 °F 71.6 °F 89% 30.06 in 10.0 mi ENE 4.6 mph - N/A   Overcast
5:38 PM 75.2 °F 71.6 °F 89% 30.05 in 10.0 mi ENE 4.6 mph - N/A   Overcast
5:47 PM 75.2 °F 71.6 °F 89% 30.05 in 10.0 mi East 5.8 mph - N/A   Overcast
5:52 PM 75.0 °F 71.1 °F 87% 30.03 in 10.0 mi ENE 5.8 mph - N/A   Overcast
6:34 PM 73.4 °F 71.6 °F 94% 30.04 in 4.0 mi East 3.5 mph - 0.00 in Rain Light Rain
6:39 PM 73.4 °F 71.6 °F 94% 30.04 in 1.8 mi Calm Calm - 0.02 in Rain Light Rain
6:48 PM 73.4 °F 71.6 °F 94% 30.04 in 2.0 mi Calm Calm - 0.04 in Rain Light Rain
6:52 PM 73.9 °F 71.1 °F 91% 30.02 in 2.0 mi Calm Calm - 0.05 in Rain Light Rain
6:56 PM 73.4 °F 71.6 °F 94% 30.04 in 1.8 mi Calm Calm - 0.02 in Rain Rain
7:07 PM 75.2 °F 71.6 °F 89% 30.04 in 2.0 mi ESE 3.5 mph - 0.05 in Rain Light Rain
7:11 PM 75.2 °F 71.6 °F 89% 30.03 in 5.0 mi SE 5.8 mph - 0.05 in Rain Light Rain
7:20 PM 75.2 °F 71.6 °F 89% 30.03 in 10.0 mi SE 5.8 mph - 0.05 in   Overcast
7:52 PM 75.9 °F 70.0 °F 82% 30.02 in 10.0 mi SSE 8.1 mph - 0.05 in   Overcast
8:13 PM 75.2 °F 69.8 °F 83% 30.04 in 10.0 mi SSE 5.8 mph - N/A   Overcast
8:28 PM 75.2 °F 69.8 °F 83% 30.04 in 10.0 mi SE 4.6 mph - N/A   Overcast
8:52 PM 73.9 °F 70.0 °F 87% 30.03 in 10.0 mi SSE 3.5 mph - N/A   Overcast
9:07 PM 73.4 °F 69.8 °F 88% 30.05 in 10.0 mi Calm Calm - N/A   Overcast
9:25 PM 73.4 °F 69.8 °F 88% 30.05 in 10.0 mi East 3.5 mph - N/A   Overcast
9:52 PM 73.9 °F 70.0 °F 87% 30.05 in 10.0 mi Calm Calm - N/A   Overcast
10:52 PM 73.9 °F 70.0 °F 87% 30.05 in 6.0 mi East 3.5 mph - 0.01 in Rain Light Rain
11:45 PM 73.4 °F 69.8 °F 88% 30.05 in 10.0 mi East 4.6 mph - 0.00 in   Overcast
11:52 PM 73.0 °F 70.0 °F 90% 30.03 in 10.0 mi East 5.8 mph - 0.00 in   Overcast